Change the Weather History Date:

Thursday, October 4, 2012

  Actual Average (KTUS) Record (KTUS)
Temperature  
Mean Temperature 71 °F 75 °F  
Max Temperature 88 °F 89 °F 100 °F (1917)
Min Temperature 54 °F 62 °F 40 °F (1908)
Degree Days  
Heating Degree Days 0 0  
Month to date heating degree days 0  
Since 1 July heating degree days 0  
Cooling Degree Days 6 11  
Month to date cooling degree days 45  
Year to date cooling degree days 2952  
Growing Degree Days 21 (Base 50)    
Moisture  
Dew Point 36 °F    
Average Humidity 31    
Maximum Humidity 49    
Minimum Humidity 16    
Precipitation  
Precipitation 0.00 in 0.03 in 0.63 in (1972)
Month to date precipitation 0.14  
Year to date precipitation 9.34  
Sea Level Pressure  
Sea Level Pressure 30.02 in    
Wind  
Wind Speed 4 mph (South)    
Max Wind Speed 14 mph    
Max Gust Speed 22 mph    
Visibility 10 miles    
Events      
T = Trace of Precipitation, MM = Missing Value Source: NWS Daily Summary

Daily Weather History Graph

Daily Weather History Graph

Search for Another Location

Airport or City:

Trip Planner

Search our weather history database for the weather conditions in past years. The results will help you decide how hot, cold, wet, or windy it might be!

Date:

Astronomy

Oct. 04, 2012 Rise Set
Actual Time 6:19 AM MST 6:03 PM MST
Civil Twilight 5:55 AM MST 6:28 PM MST
Nautical Twilight 5:26 AM MST 6:56 PM MST
Astronomical Twilight 4:58 AM MST 7:24 PM MST
Moon 8:59 PM MST 10:22 AM MST
Length of Visible Light 12h 33m
Length of Day
11h 44m
Waning Gibbous, 81% of the Moon is Illuminated
Oct 4
Waning Gibbous
Oct 8
Last Quarter
Oct 15
New
Oct 21
First Quarter
Oct 29
Full

Hourly Weather History & Observations

Time (MST) Temp. Dew Point Humidity Pressure Visibility Wind Dir Wind Speed Gust Speed Precip Events Conditions
12:54 AM 63.0 °F 35.1 °F 35% 29.99 in 10.0 mi Calm Calm - N/A   Clear
1:54 AM 61.0 °F 35.1 °F 38% 29.99 in 10.0 mi SSE 3.5 mph - N/A   Clear
2:54 AM 57.9 °F 35.1 °F 42% 30.00 in 10.0 mi South 4.6 mph - N/A   Clear
3:54 AM 57.0 °F 34.0 °F 42% 30.01 in 10.0 mi Variable 3.5 mph - N/A   Clear
4:54 AM 55.9 °F 35.1 °F 45% 30.02 in 10.0 mi Calm Calm - N/A   Clear
5:54 AM 54.0 °F 35.1 °F 49% 30.04 in 10.0 mi ESE 3.5 mph - N/A   Clear
6:54 AM 55.0 °F 36.0 °F 49% 30.06 in 10.0 mi SSE 3.5 mph - N/A   Clear
7:54 AM 63.0 °F 36.0 °F 37% 30.07 in 10.0 mi Calm Calm - N/A   Clear
8:54 AM 71.1 °F 39.0 °F 31% 30.07 in 10.0 mi Calm Calm - N/A   Clear
9:54 AM 81.0 °F 36.0 °F 20% 30.06 in 10.0 mi Variable 4.6 mph - N/A   Clear
10:54 AM 82.0 °F 36.0 °F 19% 30.05 in 10.0 mi West 5.8 mph - N/A   Clear
11:54 AM 87.1 °F 36.0 °F 16% 30.03 in 10.0 mi SW 9.2 mph 20.7 mph N/A   Clear
12:54 PM 88.0 °F 36.0 °F 16% 30.01 in 10.0 mi WSW 13.8 mph 21.9 mph N/A   Clear
1:54 PM 87.1 °F 36.0 °F 16% 30.00 in 10.0 mi West 6.9 mph 19.6 mph N/A   Clear
2:54 PM 87.1 °F 37.0 °F 17% 29.99 in 10.0 mi SSW 13.8 mph 21.9 mph N/A   Clear
3:54 PM 86.0 °F 36.0 °F 17% 29.99 in 10.0 mi Variable 6.9 mph 19.6 mph N/A   Clear
4:54 PM 82.9 °F 34.0 °F 17% 29.99 in 10.0 mi SSW 11.5 mph - N/A   Clear
5:54 PM 79.0 °F 34.0 °F 20% 30.01 in 10.0 mi SSW 6.9 mph - N/A   Clear
6:54 PM 75.9 °F 34.0 °F 22% 30.01 in 10.0 mi SSW 3.5 mph - N/A   Clear
7:54 PM 69.1 °F 37.0 °F 31% 30.03 in 10.0 mi South 3.5 mph - N/A   Clear
8:54 PM 66.9 °F 37.0 °F 33% 30.02 in 10.0 mi SE 4.6 mph - N/A   Clear
9:54 PM 66.0 °F 39.0 °F 37% 30.00 in 10.0 mi SE 4.6 mph - N/A   Clear
10:54 PM 63.0 °F 39.0 °F 41% 30.01 in 10.0 mi SSE 4.6 mph - N/A   Clear
11:54 PM 62.1 °F 39.0 °F 43% 29.99 in 10.0 mi Calm Calm - N/A   Clear